RH
54 54 53 52 52 53 53 51 51 51 50 47 43 43 46 45 40 38 41 46 48 45 39 37 41 50 60 67 66 65 66 66 66 65 64 64 64 65 65 63 62 62 62 63 61 60 59 57 55 54 51 48 47 43 40 38 38 40 43 44 45 45 45
55 54 54 54 53 54 53 50 50 51 51 49 47 46 47 45 42 39 40 44 46 44 40 38 41 49 60 69 68 66 66 65 66 63 62 65 66 67 68 65 63 62 62 62 61 58 57 55 54 52 48 46 45 42 41 40 41 43 46 47 44 43 45
56 56 56 55 54 55 52 49 48 49 49 50 49 49 49 47 45 41 39 43 43 41 40 39 42 48 57 67 69 68 66 65 64 62 61 64 66 68 69 67 63 61 61 62 61 60 58 56 53 48 44 44 45 43 43 43 45 46 49 49 46 42 43
58 59 58 56 55 55 52 49 48 48 49 51 50 49 49 48 45 41 39 42 41 39 39 39 42 48 56 65 69 68 65 63 63 61 60 65 66 67 68 67 64 61 60 62 61 60 58 57 54 50 47 46 46 45 46 48 49 50 51 50 47 43 42
60 62 60 57 56 54 52 50 49 49 50 51 50 48 50 50 47 43 40 41 41 39 40 39 42 49 57 64 67 65 61 60 60 58 60 65 66 67 69 67 64 62 60 60 61 60 61 63 61 57 52 48 47 50 50 49 51 52 52 50 48 44 42
62 65 63 60 55 52 50 48 49 51 52 50 49 49 49 51 50 45 41 42 41 41 41 41 42 49 57 63 66 64 57 55 57 59 63 66 66 66 67 65 63 62 60 59 61 62 63 63 61 57 51 45 48 54 53 49 52 54 51 50 47 43 43
60 65 66 63 57 50 47 48 50 52 53 51 50 50 50 52 52 46 43 43 43 42 42 41 41 47 55 62 67 64 57 54 57 61 63 64 65 65 65 64 62 60 58 58 61 63 62 59 56 52 46 42 43 49 52 50 52 53 50 49 46 41 43
58 63 64 63 59 53 47 48 52 53 53 52 51 50 50 52 53 49 46 45 44 42 42 41 41 45 51 58 64 63 56 54 55 58 60 62 64 64 65 65 62 59 58 59 61 63 62 58 55 51 46 42 41 46 51 50 49 48 47 48 45 41 45
59 63 63 60 59 57 51 49 52 54 54 53 52 50 50 52 53 52 49 47 45 43 42 41 40 43 48 54 58 59 56 54 54 57 61 63 64 65 66 65 64 62 61 60 60 61 61 59 56 52 47 44 45 50 51 48 46 44 42 47 45 42 46
61 63 62 59 59 60 57 54 55 55 56 55 52 51 51 51 52 52 49 47 45 43 41 40 40 41 45 50 55 57 56 54 54 56 60 63 65 65 66 65 65 64 62 60 58 58 59 58 56 51 46 45 48 51 49 45 46 43 41 46 44 43 49
60 62 62 60 59 60 60 59 56 56 57 56 52 52 52 51 51 52 49 47 45 43 41 41 41 41 44 49 53 55 56 54 54 55 58 61 61 62 64 65 64 62 60 58 55 55 56 54 51 48 47 49 50 50 47 44 47 45 42 47 46 45 51
58 61 62 59 58 58 60 60 59 57 57 57 54 53 53 51 52 52 49 46 46 44 42 42 42 41 43 49 52 54 55 54 55 56 56 59 60 60 61 62 61 59 57 56 54 55 55 51 50 51 52 52 50 48 47 46 49 46 44 51 50 46 51
56 60 61 59 58 57 59 60 61 59 58 57 56 54 54 52 52 53 48 44 46 46 43 42 43 43 44 47 50 53 54 54 56 56 55 57 60 61 62 62 61 60 58 59 57 55 53 52 54 57 55 52 48 48 51 50 49 48 50 55 52 49 55
56 59 60 59 58 56 57 59 61 61 60 58 56 54 55 54 53 52 49 46 47 48 46 44 43 43 43 45 49 52 53 54 56 55 54 56 59 59 59 60 62 62 59 57 53 49 50 52 55 55 52 50 49 50 53 53 49 49 55 58 56 59 62
56 56 57 57 58 56 56 59 60 61 61 59 56 54 54 55 54 52 50 47 48 48 47 46 44 42 42 44 46 50 52 53 55 55 54 56 56 55 56 57 58 59 57 52 48 46 49 51 51 49 47 48 50 51 53 53 49 49 57 61 63 66 62
57 54 55 56 58 57 57 60 61 61 61 60 56 54 55 55 55 52 49 47 47 46 46 46 43 41 42 43 45 48 50 52 54 55 55 55 54 54 55 55 56 57 54 50 46 46 47 48 47 45 46 48 49 51 53 54 52 51 54 56 58 61 55
58 54 54 55 57 58 57 59 61 61 61 61 59 56 55 54 54 51 47 46 46 45 44 43 42 41 43 43 43 46 49 50 53 56 57 55 53 54 54 54 54 55 52 49 46 44 44 44 43 45 48 48 51 54 56 56 55 54 53 53 52 52 51
56 51 51 52 55 58 57 58 60 61 60 60 59 58 55 53 52 49 47 46 45 44 44 42 41 41 43 43 43 44 47 49 53 56 57 56 54 53 53 52 52 52 50 48 45 43 42 40 40 45 48 50 53 56 55 54 53 52 54 55 52 47 44
52 47 46 50 53 56 56 57 58 59 59 58 58 58 56 53 50 48 46 45 44 44 43 43 42 42 43 43 42 43 45 48 52 55 56 55 53 52 52 50 50 50 48 46 44 43 42 40 41 45 47 49 54 54 51 49 48 49 53 55 51 46 41
48 42 43 48 52 55 57 57 57 58 57 56 56 56 56 53 49 47 46 45 44 43 42 43 43 44 43 42 42 41 42 46 52 54 54 53 52 52 51 49 48 49 47 45 44 43 43 42 42 44 44 46 51 51 49 48 48 51 54 54 50 45 39
46 41 43 49 52 54 56 56 57 57 55 54 55 55 55 53 49 47 46 45 45 43 42 42 44 45 43 41 41 40 41 46 51 53 53 52 51 52 51 48 47 47 46 45 44 44 43 42 42 41 41 43 48 50 49 50 52 53 54 54 50 43 37
47 44 44 48 51 53 55 57 57 54 51 52 52 53 54 52 49 47 45 44 45 44 42 42 45 46 43 40 40 39 40 45 50 52 52 51 51 51 50 47 45 45 45 45 44 43 42 42 41 39 41 45 49 51 51 54 55 52 51 51 46 40 37
49 46 44 47 50 51 54 56 55 52 49 49 49 49 50 49 48 46 44 44 45 45 43 43 46 46 43 40 40 40 40 44 49 51 52 51 50 50 49 47 44 43 43 44 45 45 43 43 41 40 43 48 52 52 52 55 54 51 50 48 43 38 37
51 49 47 49 51 51 53 53 53 51 49 47 46 46 47 47 45 44 43 44 46 47 43 43 45 46 44 42 40 40 41 43 47 51 51 51 51 49 48 46 43 42 42 45 47 47 46 45 43 43 46 51 54 52 52 55 54 51 50 46 41 39 38
51 52 50 51 52 52 51 51 51 51 48 46 45 44 45 44 43 43 44 45 48 47 43 42 45 45 45 44 40 40 41 42 46 51 51 51 51 49 46 45 44 43 41 43 49 51 50 48 46 46 50 54 55 51 50 54 54 51 49 44 41 39 39
47 50 48 49 51 51 50 49 49 49 47 44 44 44 43 43 42 42 44 47 48 46 44 43 45 47 46 43 40 41 42 42 45 50 51 51 50 48 45 45 47 47 44 43 47 52 54 53 48 48 52 56 56 51 48 49 49 48 45 42 40 41 41
41 45 46 47 49 48 47 48 48 47 45 44 44 44 43 42 41 42 44 47 49 47 45 45 46 48 48 44 41 41 44 44 45 49 51 50 49 47 45 45 48 50 51 48 48 50 55 56 51 50 54 57 55 49 46 45 44 42 39 37 39 44 48
38 40 41 43 45 45 45 47 48 46 44 44 45 43 42 41 41 41 44 48 49 47 46 46 48 50 49 46 41 42 46 45 44 47 50 50 49 46 44 45 47 49 52 53 52 52 54 56 55 52 53 55 52 47 45 44 42 40 38 37 38 46 52
35 37 38 38 40 42 43 44 47 46 43 44 44 41 40 41 41 41 44 48 50 48 46 48 50 50 51 50 44 42 47 47 44 47 50 50 49 47 45 46 47 47 48 51 55 57 57 57 56 52 52 55 53 48 45 43 41 40 40 39 37 42 47
32 34 35 35 36 40 42 43 45 45 42 43 41 39 40 42 41 41 44 48 50 47 46 49 51 52 54 55 48 42 46 47 44 46 49 49 49 47 46 48 48 46 45 47 53 60 61 59 56 53 55 56 52 47 45 44 41 41 42 40 38 40 42
30 31 32 32 35 38 40 42 45 44 42 42 41 40 41 42 41 41 44 48 50 47 45 50 53 52 54 57 52 44 45 47 46 47 48 49 50 48 48 50 49 47 46 47 53 59 62 61 57 55 57 54 49 47 47 45 43 44 44 42 40 41 42
28 30 30 30 33 36 39 42 44 43 41 41 41 40 41 40 40 42 45 50 51 47 46 50 53 53 53 57 54 47 45 47 48 48 48 49 50 50 51 51 49 49 49 51 55 59 61 62 59 59 59 53 48 48 49 47 46 46 47 47 45 45 43
28 29 30 30 32 35 39 42 43 42 41 41 41 41 40 40 40 43 47 50 51 48 47 50 53 53 54 56 55 49 46 48 49 49 49 49 50 52 53 51 53 55 53 53 58 63 64 64 63 62 59 53 49 51 51 50 48 48 48 50 50 50 46
28 28 29 31 33 35 38 41 42 41 41 41 40 40 40 39 41 45 48 50 51 50 49 49 52 53 53 55 54 49 47 49 52 52 52 50 50 52 53 52 54 55 54 56 64 68 68 68 67 63 59 53 52 54 53 52 51 50 50 52 53 52 48
28 28 30 31 32 34 37 39 40 41 41 40 39 40 40 40 43 46 49 51 52 53 50 49 51 52 50 52 52 48 47 50 54 54 52 50 50 52 53 52 49 48 51 59 65 67 68 70 68 62 57 53 54 55 54 55 57 55 53 56 60 58 51
33 31 31 31 31 32 34 36 38 39 39 38 40 40 39 41 44 47 49 51 54 56 52 49 51 50 48 49 49 48 49 54 56 55 52 50 50 50 51 50 47 46 51 58 61 63 68 71 67 60 55 53 52 52 52 56 63 64 59 60 64 62 56
42 36 32 31 32 32 32 34 35 36 37 39 40 40 39 42 45 48 50 53 56 58 55 50 50 50 48 48 49 51 56 59 57 55 54 54 55 53 51 49 48 48 49 50 54 60 67 69 65 58 54 51 50 51 52 55 61 63 61 61 61 57 55